This is the latest recevied weather packets stored in our database for station/object F4WDE-10. If no packets are shown the sender has not sent any weather packets the latest 10 day(s).
| Time | Temp. | Humidity | Pressure | Rain* | Wind** | Luminosity | Snow |
|---|---|---|---|---|---|---|---|
| 1777454125 | 22.22° C | 51% | 961 hPa | - | - | - | - |
| 1777453224 | 22.22° C | 53% | 960 hPa | - | - | - | - |
| 1777452323 | 21.67° C | 56% | 960 hPa | - | - | - | - |
| 1777451422 | 21.11° C | 48% | 960 hPa | - | - | - | - |
| 1777450521 | 21.11° C | 47% | 960 hPa | - | - | - | - |
| 1777449620 | 20.56° C | 49% | 960 hPa | - | - | - | - |
| 1777448719 | 20° C | 51% | 960 hPa | - | - | - | - |
| 1777447818 | 19.44° C | 52% | 960 hPa | - | - | - | - |
| 1777446916 | 18.89° C | 54% | 960 hPa | - | - | - | - |
| 1777446015 | 18.33° C | 56% | 960 hPa | - | - | - | - |
| 1777445114 | 17.78° C | 57% | 960 hPa | - | - | - | - |
| 1777444213 | 16.67° C | 57% | 960 hPa | - | - | - | - |
| 1777443312 | 17.22° C | 52% | 960 hPa | - | - | - | - |
| 1777442411 | 17.22° C | 51% | 960 hPa | - | - | - | - |
| 1777441510 | 16.67° C | 54% | 960 hPa | - | - | - | - |
| 1777440609 | 16.67° C | 56% | 960 hPa | - | - | - | - |
| 1777439708 | 16.11° C | 58% | 960 hPa | - | - | - | - |
| 1777438806 | 16.11° C | 59% | 960 hPa | - | - | - | - |
| 1777437905 | 16.11° C | 61% | 960 hPa | - | - | - | - |
| 1777437004 | 15.56° C | 60% | 960 hPa | - | - | - | - |
| 1777436103 | 15.56° C | 59% | 960 hPa | - | - | - | - |
| 1777435202 | 15° C | 59% | 960 hPa | - | - | - | - |
| 1777434301 | 15.56° C | 63% | 960 hPa | - | - | - | - |
| 1777433400 | 15.56° C | 61% | 960 hPa | - | - | - | - |
| 1777432499 | 15° C | 57% | 960 hPa | - | - | - | - |
* Rain since midnight (hover to see other rain measurements)
** Current wind speed in m/s (hover to see current wind gust speed)